Torna al catalogo

SL-16 DEB

AttivoLEO
NORAD 22361·DEBRIS·🇷🇺 Russia

Lanciato Dec 25, 1992 da Baikonur Cosmodrome

Loading…

Prossimi Passaggi (prossime 24 ore)

TLE

AggiornatoSource: Space-Track

Epoca: Sep 14, 2026, 13:15 UTC

1 22361U 92093BA  26257.55242559  .00000153  00000-0  16351-3 0  9994
2 22361  70.7635  96.3613 0183259 176.5842 214.8863 13.81459276695078

Traccia SL-16 DEB in tempo reale con AllMySat

Download on the App Store